GW0610 Weather Reports


Display with metric or nautical units.
time (UTC)temp
F
wind
direction
speed
MPH
gust
MPH
rain 1hr
in
rain 24hr
in
rain mn
in
humidity
%
barometer
mb
20260510190107 82 117 4.0 9.0 0.00 0.22 0.01 75 1014.7
20260510185553 82 132 3.0 11.0 0.00 0.31 0.01 74 1014.7
20260510185053 82 136 4.0 11.0 0.00 0.31 0.01 75 1014.7
20260510184556 82 84 4.0 11.0 0.00 0.31 0.01 73 1014.7
20260510184053 82 190 3.0 15.0 0.00 0.31 0.01 75 1014.7
20260510183553 82 134 6.0 15.0 0.00 0.31 0.01 74 1014.8
20260510183057 82 113 3.0 12.0 0.00 0.31 0.01 73 1014.9
20260510182552 82 109 5.0 11.0 0.00 0.31 0.01 73 1015.0
20260510182052 82 145 2.0 8.0 0.00 0.31 0.01 72 1015.1
20260510181557 82 96 3.0 7.0 0.00 0.31 0.01 73 1015.2
20260510181053 82 149 2.0 9.0 0.00 0.31 0.01 74 1015.3
20260510180553 82 15 2.0 9.0 0.00 0.31 0.01 73 1015.5
20260510180432 82 98 2.0 10.0 0.00 0.31 0.01 73 1015.7
20260510175553 81 157 2.0 10.0 0.00 0.52 0.01 75 1015.7
20260510175052 81 74 5.0 11.0 0.00 0.52 0.01 75 1015.8
20260510174553 81 101 4.0 11.0 0.00 0.52 0.01 76 1015.8
20260510174054 80 184 5.0 11.0 0.00 0.52 0.01 76 1015.8
20260510173558 81 186 3.0 11.0 0.00 0.52 0.01 77 1015.8
20260510173053 81 138 1.0 9.0 0.00 0.52 0.01 77 1015.8
20260510172553 81 117 2.0 9.0 0.00 0.52 0.01 78 1015.8
20260510172054 81 155 4.0 9.0 0.00 0.52 0.01 75 1015.9
20260510171556 81 147 3.0 12.0 0.00 0.52 0.01 77 1016.0
20260510171052 81 113 2.0 12.0 0.00 0.52 0.01 78 1016.1
20260510170552 80 65 2.0 9.0 0.00 0.52 0.01 79 1016.1
20260510170052 80 0 3.0 9.0 0.00 0.52 0.01 79 1016.3
20260510165553 80 117 3.0 9.0 0.00 0.87 0.01 79 1016.3
20260510165052 80 61 1.0 9.0 0.00 0.87 0.01 79 1016.2
20260510164554 80 75 2.0 9.0 0.00 0.87 0.01 79 1016.2
20260510164052 80 56 2.0 9.0 0.00 0.87 0.01 78 1016.2
20260510163552 80 140 2.0 8.0 0.00 0.87 0.01 76 1016.2
20260510163056 80 136 2.0 8.0 0.00 0.87 0.01 78 1016.2
20260510162552 80 62 2.0 8.0 0.00 0.87 0.01 79 1016.2
20260510162053 80 166 2.0 7.0 0.00 0.87 0.01 77 1016.3
20260510161600 79 121 3.0 9.0 0.00 0.87 0.01 78 1016.3
20260510161053 79 179 3.0 10.0 0.00 0.87 0.01 79 1016.4
20260510160554 78 107 2.0 10.0 0.00 0.87 0.01 80 1016.2
20260510160132 78 87 4.0 9.0 0.00 0.87 0.01 79 1016.1
20260510155552 78 136 0.0 9.0 0.00 1.09 0.01 83 1016.0
20260510155053 78 63 2.0 10.0 0.00 1.09 0.01 82 1015.9
20260510154557 78 117 5.0 10.0 0.00 1.09 0.01 81 1015.9
20260510154052 78 125 3.0 9.0 0.00 1.09 0.01 81 1015.9
20260510153552 77 171 3.0 9.0 0.00 1.09 0.01 82 1015.9
20260510153055 77 0 1.0 9.0 0.00 1.09 0.01 82 1016.0
20260510152553 77 116 2.0 8.0 0.00 1.09 0.01 84 1016.1
20260510152053 76 123 1.0 9.0 0.00 1.09 0.01 85 1016.1
20260510151558 76 131 3.0 9.0 0.00 1.09 0.01 87 1016.1
20260510151053 75 64 0.0 6.0 0.00 1.09 0.01 88 1016.1
20260510150553 75 31 2.0 6.0 0.00 1.09 0.01 87 1016.2
20260510150057 75 78 1.0 7.0 0.00 1.09 0.01 87 1016.3
20260510145556 75 70 1.0 8.0 0.00 1.14 0.01 87 1016.3
20260510145053 75 30 3.0 8.0 0.00 1.14 0.01 88 1016.3
20260510144610 75 65 2.0 7.0 0.00 1.14 0.01 90 1016.4
20260510144053 74 0 1.0 7.0 0.00 1.14 0.01 91 1016.4
20260510143553 74 86 1.0 12.0 0.00 1.14 0.01 93 1016.2
20260510143056 73 165 4.0 12.0 0.00 1.14 0.01 94 1016.1
20260510142552 72 115 3.0 9.0 0.00 1.14 0.01 95 1016.1
20260510142053 72 350 2.0 7.0 0.00 1.14 0.01 96 1016.2
20260510141557 72 39 1.0 8.0 0.00 1.14 0.01 97 1016.1
20260510141053 72 26 2.0 10.0 0.00 1.14 0.01 98 1016.1
20260510140552 71 98 2.0 10.0 0.00 1.14 0.01 98 1016.0
20260510135553 71 30 2.0 6.0 0.00 1.89 0.01 98 1016.0
20260510135055 71 0 1.0 4.0 0.00 1.89 0.01 98 1016.1
20260510134605 70 101 2.0 4.0 0.00 1.89 0.01 98 1016.0
20260510134053 70 62 1.0 4.0 0.00 1.89 0.01 98 1016.1
20260510133552 70 99 0.0 4.0 0.00 1.89 0.01 98 1016.1
20260510133054 69 25 0.0 4.0 0.00 1.89 0.01 98 1016.0
20260510132553 69 19 1.0 4.0 0.00 1.89 0.01 98 1016.0
20260510132053 69 60 1.0 4.0 0.00 1.89 0.01 98 1015.8
20260510131554 69 0 0.0 3.0 0.00 1.89 0.01 98 1015.7
20260510131052 69 126 0.0 3.0 0.00 1.89 0.01 98 1015.7
20260510130554 69 154 0.0 4.0 0.00 1.89 0.01 98 1015.6
20260510130056 69 21 1.0 5.0 0.00 1.89 0.01 98 1015.4
20260510125554 68 38 1.0 5.0 0.00 1.89 0.01 98 1015.4
20260510125053 68 41 1.0 4.0 0.00 1.89 0.01 98 1015.3
20260510124554 68 49 1.0 4.0 0.00 1.89 0.01 98 1015.3
20260510124052 68 40 2.0 4.0 0.00 1.89 0.01 98 1015.1
20260510123552 68 44 1.0 4.0 0.00 1.89 0.01 98 1015.0
20260510123053 68 51 1.0 3.0 0.00 1.89 0.01 98 1014.8
20260510122553 68 0 0.0 2.0 0.00 1.89 0.01 98 1014.8
20260510122053 68 0 0.0 2.0 0.00 1.89 0.01 98 1014.7
20260510121553 68 0 0.0 2.0 0.00 1.89 0.01 98 1014.7
20260510121052 68 121 0.0 3.0 0.00 1.89 0.01 98 1014.6
20260510120553 68 121 0.0 3.0 0.00 1.89 0.01 98 1014.6
20260510120053 68 0 0.0 3.0 0.00 1.89 0.01 98 1014.6
20260510115552 68 0 0.0 3.0 0.00 1.89 0.01 98 1014.5
20260510115053 67 107 0.0 2.0 0.00 1.89 0.01 98 1014.3
20260510114553 67 88 0.0 3.0 0.00 1.89 0.01 98 1014.3
20260510114053 67 0 0.0 4.0 0.00 1.89 0.01 98 1014.3
20260510113552 67 0 1.0 4.0 0.00 1.89 0.01 98 1014.1
20260510113051 67 98 0.0 8.0 0.00 1.89 0.01 98 1013.9
20260510112552 67 130 1.0 8.0 0.00 1.89 0.01 98 1013.9
20260510112055 67 0 2.0 8.0 0.00 1.89 0.01 98 1013.8
20260510111607 67 96 1.0 4.0 0.00 1.89 0.01 98 1013.8
20260510111052 67 117 2.0 7.0 0.00 1.89 0.01 98 1013.8
20260510110555 67 105 1.0 7.0 0.00 1.89 0.01 97 1013.8
20260510110054 67 109 1.0 6.0 0.00 1.89 0.01 97 1013.5
20260510105552 67 0 1.0 6.0 0.00 1.89 0.01 98 1013.6
20260510105052 67 117 0.0 6.0 0.00 1.89 0.01 98 1013.5
20260510104552 67 140 2.0 6.0 0.00 1.89 0.01 97 1013.4
20260510104051 67 123 2.0 6.0 0.00 1.89 0.01 97 1013.3
20260510103554 67 127 0.0 3.0 0.00 1.89 0.01 97 1013.1
20260510103052 67 124 1.0 4.0 0.00 1.89 0.01 98 1013.0
20260510102553 67 0 0.0 4.0 0.00 1.89 0.01 98 1013.0
20260510102053 67 113 0.0 3.0 0.00 1.89 0.01 98 1012.9
20260510101553 67 0 0.0 2.0 0.00 1.89 0.01 98 1012.8
20260510101055 67 0 0.0 2.0 0.00 1.89 0.01 98 1012.7
20260510100553 67 0 0.0 2.0 0.01 1.89 0.01 98 1012.6
20260510100053 67 0 0.0 1.0 0.01 1.89 0.01 98 1012.6
20260510095550 67 0 0.0 2.0 0.01 1.89 0.01 98 1012.6
20260510095050 67 0 0.0 2.0 0.01 1.89 0.01 98 1012.5
20260510094556 67 0 0.0 3.0 0.01 1.89 0.01 98 1012.6
20260510094051 67 0 0.0 3.0 0.01 1.89 0.01 98 1012.7
20260510093551 67 0 0.0 2.0 0.01 1.89 0.01 98 1012.8
20260510093104 67 0 0.0 2.0 0.01 1.89 0.01 97 1012.6
20260510092552 67 0 1.0 2.0 0.01 1.89 0.01 98 1012.6
20260510092051 67 0 0.0 2.0 0.01 1.89 0.01 97 1012.5
20260510091553 67 0 0.0 2.0 0.01 1.89 0.01 97 1012.4
20260510091052 67 0 0.0 4.0 0.01 1.89 0.01 97 1012.4
20260510090551 67 53 0.0 4.0 0.00 1.88 0.00 97 1012.3
20260510090104 67 55 1.0 4.0 0.00 1.88 0.00 97 1012.3
20260510085551 67 54 1.0 3.0 0.00 1.88 0.00 97 1012.4
20260510085051 67 62 1.0 2.0 0.00 1.88 0.00 98 1012.4
20260510084552 67 0 0.0 2.0 0.00 1.88 0.00 98 1012.4
20260510084051 67 43 0.0 3.0 0.00 1.88 0.00 97 1012.4
20260510083553 68 43 0.0 5.0 0.00 1.88 0.00 98 1012.4
20260510083105 68 50 1.0 5.0 0.00 1.88 0.00 98 1012.3
20260510082551 67 39 2.0 4.0 0.00 1.88 0.00 98 1012.4
20260510082051 67 45 1.0 4.0 0.00 1.88 0.00 98 1012.4
20260510081608 67 0 0.0 2.0 0.00 1.88 0.00 98 1012.3
20260510081051 66 0 0.0 1.0 0.00 1.88 0.00 97 1012.3
20260510080550 66 0 0.0 1.0 0.00 1.88 0.00 98 1012.2
20260510080056 66 0 0.0 1.0 0.00 1.88 0.00 97 1012.1
20260510075550 66 0 0.0 1.0 0.00 1.88 0.00 97 1012.1
20260510075050 66 0 0.0 0.0 0.00 1.88 0.00 97 1012.1
20260510074558 66 0 0.0 1.0 0.00 1.88 0.00 97 1012.1
20260510074054 66 0 0.0 2.0 0.00 1.88 0.00 97 1012.1
20260510073551 66 69 0.0 2.0 0.00 1.88 0.00 97 1012.1
20260510073054 66 69 0.0 1.0 0.00 1.88 0.00 97 1012.0
20260510072551 66 0 0.0 1.0 0.00 1.88 0.00 97 1011.9
20260510072054 66 0 0.0 2.0 0.00 1.88 0.00 97 1011.8
20260510071555 66 0 0.0 2.0 0.00 1.88 0.00 97 1011.9
20260510071050 66 69 0.0 1.0 0.00 1.88 0.00 97 1011.8
20260510070551 66 69 0.0 2.0 0.00 1.88 0.00 97 1012.0
20260510070055 66 0 0.0 2.0 0.00 1.88 0.00 97 1012.0
20260510065553 66 69 1.0 2.0 0.00 1.88 0.00 97 1012.1
20260510065057 66 0 0.0 1.0 0.00 1.88 0.00 97 1012.1
20260510064602 66 0 0.0 1.0 0.00 1.88 0.00 97 1012.1
20260510064050 66 0 0.0 1.0 0.00 1.88 0.00 97 1012.1
20260510063551 66 0 0.0 1.0 0.00 1.88 0.00 97 1012.0
20260510063053 66 69 0.0 2.0 0.00 1.88 0.00 97 1011.9
20260510062551 66 0 0.0 2.0 0.00 1.88 0.00 97 1011.9
20260510062051 66 69 0.0 2.0 0.00 1.88 0.00 97 1012.0
20260510061557 66 0 0.0 2.0 0.00 1.88 0.00 97 1012.0
20260510061051 66 126 1.0 2.0 0.00 1.88 0.00 97 1012.1
20260510060551 66 0 0.0 2.0 0.00 1.88 0.00 97 1012.1
20260510060105 66 0 0.0 2.0 0.00 1.88 0.00 97 1012.1
20260510055550 66 126 0.0 1.0 0.00 1.88 0.00 97 1012.1
20260510055053 67 0 0.0 0.0 0.00 1.88 0.00 97 1012.1
20260510054553 67 0 0.0 2.0 0.00 1.88 0.00 97 1012.2
20260510054050 67 0 0.0 2.0 0.00 1.88 0.00 97 1012.0
20260510053550 67 126 0.0 2.0 0.00 1.88 0.00 97 1011.9
20260510053052 67 0 0.0 2.0 0.00 1.88 0.00 97 1011.9
20260510052553 67 126 0.0 2.0 0.00 1.88 0.00 97 1012.0
20260510052054 67 0 0.0 2.0 0.00 1.88 0.00 97 1011.9
20260510051556 67 0 0.0 3.0 0.00 1.88 0.00 97 1011.9
20260510051054 67 126 0.0 3.0 0.00 1.88 0.00 97 1012.0
20260510050555 67 136 0.0 3.0 0.00 1.88 0.00 97 1011.9
20260510045554 67 0 0.0 2.0 0.00 1.88 1.88 97 1012.1
20260510045051 67 0 0.0 5.0 0.00 1.88 1.88 97 1012.1
20260510044619 67 0 1.0 5.0 0.00 1.88 1.88 97 1012.0
20260510044051 67 0 0.0 3.0 0.00 1.88 1.88 97 1012.1
20260510043551 67 188 0.0 6.0 0.00 1.88 1.88 97 1012.2
20260510043051 67 0 1.0 6.0 0.00 1.88 1.88 97 1012.3
20260510042553 67 143 0.0 3.0 0.00 1.88 1.88 97 1012.4
20260510042053 67 143 1.0 3.0 0.00 1.88 1.88 97 1012.4
20260510041553 67 132 1.0 5.0 0.00 1.88 1.88 97 1012.2
20260510041052 67 170 1.0 7.0 0.00 1.88 1.88 97 1012.2
20260510040551 67 139 1.0 7.0 0.00 1.88 1.88 97 1012.2
20260510040053 67 134 2.0 6.0 0.00 1.88 1.88 97 1012.0
20260510035551 67 162 2.0 7.0 0.00 1.88 1.88 97 1012.2
20260510035051 67 190 2.0 7.0 0.00 1.88 1.88 97 1012.4
20260510034551 67 190 2.0 6.0 0.00 1.88 1.88 97 1012.3
20260510034052 67 211 2.0 4.0 0.00 1.88 1.88 97 1012.6
20260510033554 67 181 1.0 4.0 0.00 1.88 1.88 97 1012.8
20260510033053 67 220 1.0 3.0 0.00 1.88 1.88 97 1012.9
20260510032555 67 194 1.0 3.0 0.00 1.88 1.88 97 1012.8
20260510032052 67 194 1.0 2.0 0.00 1.88 1.88 97 1012.8
20260510031552 67 194 0.0 3.0 0.00 1.88 1.88 97 1012.8
20260510031056 67 194 1.0 3.0 0.00 1.88 1.88 97 1012.8
20260510030554 67 194 0.0 1.0 0.00 1.88 1.88 96 1012.9
20260510030055 67 0 0.0 1.0 0.00 1.88 1.88 97 1012.9
20260510025551 67 0 0.0 3.0 0.00 1.88 1.88 97 1012.9
20260510025052 67 0 0.0 3.0 0.00 1.88 1.88 97 1013.0
20260510024553 67 0 1.0 3.0 0.00 1.88 1.88 97 1013.0
20260510024052 67 194 1.0 3.0 0.00 1.88 1.88 97 1012.8
20260510023552 68 150 0.0 3.0 0.00 1.88 1.88 97 1012.8
20260510023054 67 0 0.0 3.0 0.00 1.88 1.88 97 1012.5
20260510022552 68 120 0.0 5.0 0.00 1.88 1.88 97 1012.5
20260510022051 68 0 1.0 5.0 0.00 1.88 1.88 97 1012.4
20260510021553 68 176 1.0 5.0 0.00 1.88 1.88 97 1012.3
20260510021051 68 0 1.0 5.0 0.00 1.88 1.88 97 1012.2
20260510020551 68 184 1.0 5.0 0.00 1.88 1.88 96 1012.2
20260510020051 68 163 0.0 3.0 0.00 1.88 1.88 97 1012.3
20260510015551 68 152 0.0 3.0 0.00 1.88 1.88 97 1012.3
20260510015051 68 0 0.0 7.0 0.00 1.88 1.88 96 1012.2
20260510014553 68 176 1.0 7.0 0.00 1.88 1.88 96 1012.1
20260510014051 68 121 2.0 5.0 0.00 1.88 1.88 97 1012.1
20260510013552 68 154 1.0 6.0 0.01 1.88 1.88 97 1012.0
20260510013054 68 123 1.0 6.0 0.02 1.88 1.88 97 1011.9
20260510012552 68 138 1.0 5.0 0.02 1.88 1.88 97 1012.0
20260510012052 68 133 1.0 8.0 0.02 1.88 1.88 97 1012.0
20260510011556 68 118 2.0 9.0 0.02 1.88 1.88 97 1011.9
20260510011051 68 130 2.0 9.0 0.02 1.88 1.88 97 1011.8
20260510010551 68 124 1.0 7.0 0.02 1.88 1.88 97 1011.8
20260510010126 68 173 2.0 7.0 0.02 1.88 1.88 97 1011.8
20260510005552 68 151 2.0 7.0 0.02 1.88 1.88 97 1011.9
20260510005051 68 151 1.0 6.0 0.02 1.88 1.88 97 1011.9
20260510004554 68 174 2.0 10.0 0.02 1.88 1.88 97 1011.9
20260510004051 68 158 3.0 10.0 0.02 1.88 1.88 97 1011.8
20260510003552 68 182 2.0 7.0 0.01 1.87 1.87 97 1011.9
20260510003059 68 124 1.0 5.0 0.01 1.86 1.86 97 1011.9
20260510002551 68 162 1.0 5.0 0.01 1.86 1.86 97 1012.0
20260510002051 68 117 1.0 4.0 0.02 1.86 1.86 97 1011.9
20260510001554 68 207 0.0 3.0 0.03 1.86 1.86 97 1012.0
20260510001052 68 159 1.0 4.0 0.04 1.86 1.86 97 1011.8
20260510000551 68 182 0.0 5.0 0.05 1.86 1.86 97 1011.9
20260510000054 68 154 0.0 5.0 0.05 1.86 1.86 96 1011.8
20260509235551 68 148 0.0 5.0 0.06 1.87 1.86 97 1011.8
20260509235051 68 171 1.0 6.0 0.06 1.87 1.86 97 1011.9
20260509234613 68 154 2.0 6.0 0.06 1.87 1.86 97 1011.8
20260509234051 68 139 1.0 6.0 0.06 1.87 1.86 96 1011.7
20260509233552 68 138 2.0 6.0 0.06 1.87 1.86 96 1011.8
20260509233057 68 129 2.0 6.0 0.05 1.86 1.85 96 1011.8
20260509232554 68 124 1.0 6.0 0.04 1.85 1.84 96 1011.9
20260509232051 69 144 0.0 4.0 0.04 1.85 1.84 97 1012.2
20260509231555 69 201 1.0 4.0 0.03 1.84 1.83 97 1012.2
20260509231052 69 163 1.0 4.0 0.02 1.83 1.82 97 1012.0
20260509230551 69 131 0.0 3.0 0.01 1.82 1.81 97 1012.1
20260509230053 69 0 0.0 4.0 0.01 1.82 1.81 97 1012.1
20260509225553 69 0 2.0 7.0 0.00 1.83 1.80 97 1012.0
20260509225051 69 184 1.0 7.0 0.01 1.83 1.80 97 1011.9
20260509224553 69 190 2.0 7.0 0.01 1.83 1.80 97 1011.9
20260509224054 69 128 1.0 5.0 0.01 1.83 1.80 97 1011.8
20260509223552 69 146 1.0 5.0 0.02 1.83 1.80 97 1011.8
20260509223052 69 202 1.0 4.0 0.02 1.83 1.80 97 1011.7
20260509222554 69 192 1.0 4.0 0.02 1.83 1.80 97 1011.5
20260509222051 69 146 1.0 4.0 0.02 1.83 1.80 97 1011.2
20260509221554 69 144 1.0 3.0 0.02 1.83 1.80 97 1011.2
20260509221052 69 144 1.0 3.0 0.02 1.83 1.80 97 1011.1
20260509220551 69 0 0.0 2.0 0.02 1.83 1.80 97 1011.0
20260509215551 68 209 0.0 3.0 0.02 2.00 1.80 97 1011.5
20260509215052 68 217 0.0 8.0 0.01 1.99 1.79 97 1011.5
20260509214554 68 249 1.0 8.0 0.01 1.99 1.79 97 1011.5
20260509214051 68 202 2.0 7.0 0.01 1.99 1.79 97 1011.7
20260509213551 68 192 1.0 7.0 0.00 1.98 1.78 97 1011.6
20260509213057 68 165 1.0 7.0 0.00 1.98 1.78 97 1011.4
20260509212551 68 192 2.0 10.0 0.00 1.98 1.78 97 1011.0
20260509212051 68 160 3.0 10.0 0.00 1.98 1.78 97 1011.1
20260509211556 68 187 2.0 8.0 0.00 1.98 1.78 97 1011.1
20260509211055 68 198 3.0 9.0 0.00 1.98 1.78 97 1010.9
20260509210552 68 175 1.0 9.0 0.00 1.98 1.78 97 1010.9
20260509210052 68 163 3.0 8.0 0.01 1.98 1.78 97 1010.9
20260509205551 68 199 2.0 8.0 0.02 2.45 1.78 97 1010.7
20260509205054 68 97 1.0 8.0 0.03 2.45 1.78 97 1010.7
20260509204601 68 127 2.0 8.0 0.04 2.45 1.78 97 1010.7
20260509204052 68 146 2.0 6.0 0.05 2.45 1.78 97 1010.9
20260509203552 68 136 2.0 6.0 0.06 2.45 1.78 97 1010.7
20260509203138 68 167 1.0 4.0 0.07 2.45 1.78 97 1011.1
20260509202551 67 130 2.0 4.0 0.07 2.45 1.78 97 1011.4
20260509202055 67 105 1.0 4.0 0.08 2.45 1.78 97 1011.4
20260509201631 67 103 1.0 4.0 0.08 2.45 1.78 97 1011.6
20260509201054 67 155 0.0 4.0 0.09 2.45 1.78 97 1012.0
20260509200553 67 196 0.0 4.0 0.10 2.45 1.78 97 1012.1
20260509200100 67 179 2.0 4.0 0.10 2.44 1.77 97 1012.1
20260509195553 67 153 1.0 4.0 0.09 2.43 1.76 97 1012.1
20260509195053 67 0 1.0 5.0 0.09 2.42 1.75 97 1012.1
20260509194551 67 179 0.0 5.0 0.09 2.41 1.74 97 1012.1
20260509194053 67 197 1.0 4.0 0.08 2.40 1.73 97 1012.0
20260509193553 67 167 1.0 4.0 0.08 2.39 1.72 97 1012.1
20260509193119 67 121 1.0 4.0 0.09 2.38 1.71 97 1012.1
20260509192552 67 148 1.0 4.0 0.10 2.38 1.71 97 1012.3
20260509192052 67 173 0.0 4.0 0.10 2.36 1.70 97 1012.6
20260509191612 67 173 1.0 6.0 0.11 2.36 1.70 97 1012.9
20260509191057 67 136 0.0 6.0 0.10 2.35 1.69 97 1012.8
20260509190554 67 138 0.0 7.0 0.10 2.34 1.68 97 1012.7